Location: Unspecified
(0.0000°N, 0.0000°E)
Time: 22:58:46
(UTC+02:00)

Iridium 15 - Visible Passes

Search period start: 27 August 2014 00:00
Search period end: 06 September 2014 00:00
Orbit: 776 x 779 km, 86.4° (Epoch: 27 August)

Date Brightness Start Highest point End Pass type
(mag) Time Alt. Az. Time Alt. Az. Time Alt. Az.
27 Aug 7.0 20:45:52 10° NE 20:49:58 24° E 20:54:04 10° SE visible
27 Aug 8.5 22:26:48 10° NW 22:30:23 19° W 22:33:59 10° SW visible
28 Aug 7.2 21:52:03 10° NNW 21:56:55 42° W 22:01:49 10° SSW visible
29 Aug 5.9 21:18:16 10° N 21:23:28 86° E 21:28:41 10° S visible
30 Aug 6.5 20:45:13 10° NNE 20:50:00 38° E 20:54:48 10° SSE visible
30 Aug 9.1 22:28:53 10° WNW 22:30:26 11° W 22:31:59 10° WSW visible
31 Aug 8.1 21:52:43 10° NW 21:56:58 26° W 22:01:15 10° SW visible
01 Sep 6.6 21:18:25 10° N 21:23:31 58° W 21:28:38 10° SSW visible
02 Sep 6.0 20:44:56 10° N 20:50:03 63° E 20:55:12 10° S visible
03 Sep 8.9 21:53:55 10° NW 21:57:01 16° W 22:00:08 10° SW visible
04 Sep 7.6 21:18:51 10° NNW 21:23:34 35° W 21:28:17 10° SSW visible
05 Sep 6.2 20:44:55 10° N 20:50:06 80° W 20:55:19 10° S visible
